| time (UTC) | temp F | wind direction | speed MPH | gust MPH | rain 1hr in | rain 24hr in | rain mn in | humidity % | barometer mb |
| 20260905000029 | 0 | 148 | 0.0 | 0.0 | 0.00 | 0.00 | 0.00 | 1014.0 | |
| 20260904234509 | 0 | 148 | 0.0 | 0.0 | 0.00 | 0.00 | 0.00 | 1013.9 | |
| 20260904233005 | 0 | 148 | 0.0 | 0.0 | 0.00 | 0.00 | 0.00 | 1013.7 | |
| 20260904231601 | 0 | 148 | 0.0 | 0.0 | 0.00 | 0.00 | 0.00 | 1013.8 | |
| 20260904230107 | 0 | 148 | 0.0 | 5.0 | 0.00 | 0.00 | 0.00 | 1013.7 | |
| 20260904224555 | 0 | 148 | 0.0 | 3.0 | 0.00 | 0.00 | 0.00 | 1013.7 | |
| 20260904223047 | 0 | 148 | 0.0 | 5.0 | 0.00 | 0.00 | 0.00 | 1013.6 | |
| 20260904221543 | 0 | 148 | 2.0 | 6.0 | 0.00 | 0.00 | 0.00 | 1013.6 | |
| 20260904220100 | 0 | 148 | 3.0 | 6.0 | 0.00 | 0.00 | 0.00 | 1013.6 | |
| 20260904214537 | 0 | 148 | 4.0 | 8.0 | 0.00 | 0.00 | 0.00 | 1013.6 | |
| 20260904213030 | 0 | 148 | 3.0 | 7.0 | 0.00 | 0.00 | 0.00 | 1013.7 | |
| 20260904211529 | 0 | 148 | 4.0 | 12.0 | 0.00 | 0.00 | 0.00 | 1013.7 | |
| 20260904210033 | 0 | 148 | 4.0 | 9.0 | 0.00 | 0.00 | 0.00 | 1013.7 | |
| 20260904204518 | 0 | 148 | 2.0 | 10.0 | 0.00 | 0.00 | 0.00 | 1013.9 | |
| 20260904203027 | 0 | 148 | 5.0 | 12.0 | 0.00 | 0.00 | 0.00 | 1014.1 | |
| 20260904201510 | 0 | 146 | 4.0 | 10.0 | 0.00 | 0.00 | 0.00 | 1014.2 | |
| 20260904200007 | 0 | 146 | 3.0 | 11.0 | 0.00 | 0.00 | 0.00 | 1014.5 | |
| 20260904194613 | 0 | 144 | 2.0 | 8.0 | 0.00 | 0.00 | 0.00 | 1014.7 | |
| 20260904193059 | 0 | 144 | 2.0 | 7.0 | 0.00 | 0.00 | 0.00 | 1015.1 | |
| 20260904193009 | 0 | 144 | 2.0 | 7.0 | 0.00 | 0.00 | 0.00 | 1015.2 | |
| 20260904191554 | 0 | 145 | 4.0 | 10.0 | 0.00 | 0.00 | 0.00 | 1015.4 | |
| 20260904190049 | 0 | 145 | 4.0 | 11.0 | 0.00 | 0.00 | 0.00 | 1015.5 | |
| 20260904184551 | 0 | 144 | 3.0 | 7.0 | 0.00 | 0.00 | 0.00 | 1015.5 | |
| 20260904183043 | 0 | 144 | 2.0 | 4.0 | 0.00 | 0.00 | 0.00 | 1015.8 | |
| 20260904181540 | 0 | 144 | 1.0 | 8.0 | 0.00 | 0.00 | 0.00 | 1016.0 | |
| 20260904180045 | 0 | 144 | 2.0 | 7.0 | 0.00 | 0.00 | 0.00 | 1016.1 | |
| 20260904174540 | 0 | 144 | 1.0 | 4.0 | 0.00 | 0.00 | 0.00 | 1016.2 | |
| 20260904173043 | 0 | 144 | 2.0 | 7.0 | 0.00 | 0.00 | 0.00 | 1016.4 | |
| 20260904171535 | 0 | 144 | 4.0 | 10.0 | 0.00 | 0.00 | 0.00 | 1016.6 | |
| 20260904170041 | 0 | 142 | 4.0 | 9.0 | 0.00 | 0.00 | 0.00 | 1016.8 | |
| 20260904164530 | 0 | 142 | 0.0 | 7.0 | 0.00 | 0.00 | 0.00 | 1016.9 | |
| 20260904163030 | 0 | 142 | 0.0 | 4.0 | 0.00 | 0.00 | 0.00 | 1017.1 | |
| 20260904161532 | 0 | 142 | 2.0 | 5.0 | 0.00 | 0.00 | 0.00 | 1017.2 | |
| 20260904160029 | 0 | 142 | 2.0 | 5.0 | 0.00 | 0.00 | 0.00 | 1017.4 | |
| 20260904154528 | 0 | 142 | 2.0 | 7.0 | 0.00 | 0.00 | 0.00 | 1017.5 | |
| 20260904153021 | 0 | 142 | 2.0 | 5.0 | 0.00 | 0.00 | 0.00 | 1017.6 | |
| 20260904151518 | 0 | 142 | 0.0 | 4.0 | 0.00 | 0.00 | 0.00 | 1017.6 | |
| 20260904150019 | 0 | 142 | 2.0 | 4.0 | 0.00 | 0.00 | 0.00 | 1017.6 | |
| 20260904144507 | 0 | 142 | 0.0 | 3.0 | 0.00 | 0.00 | 0.00 | 1017.5 | |
| 20260904143002 | 0 | 142 | 0.0 | 2.0 | 0.00 | 0.00 | 0.00 | 1017.4 | |
| 20260904141559 | 0 | 142 | 1.0 | 4.0 | 0.00 | 0.00 | 0.00 | 1017.3 | |
| 20260904140058 | 0 | 142 | 0.0 | 2.0 | 0.00 | 0.00 | 0.00 | 1017.4 | |
| 20260904134551 | 0 | 142 | 0.0 | 2.0 | 0.00 | 0.00 | 0.00 | 1017.3 | |
| 20260904133046 | 0 | 142 | 0.0 | 2.0 | 0.00 | 0.00 | 0.00 | 1017.3 | |
| 20260904131540 | 0 | 142 | 0.0 | 2.0 | 0.00 | 0.00 | 0.00 | 1017.5 | |
| 20260904130036 | 0 | 142 | 0.0 | 0.0 | 0.00 | 0.00 | 0.00 | 1017.6 | |
| 20260904124531 | 0 | 142 | 0.0 | 0.0 | 0.00 | 0.00 | 0.00 | 1017.7 | |
| 20260904123026 | 0 | 142 | 0.0 | 0.0 | 0.00 | 0.00 | 0.00 | 1017.6 | |
| 20260904121522 | 0 | 142 | 0.0 | 0.0 | 0.00 | 0.00 | 0.00 | 1017.6 | |
| 20260904120018 | 0 | 142 | 0.0 | 0.0 | 0.00 | 0.00 | 0.00 | 1017.5 | |
| 20260904114520 | 0 | 142 | 0.0 | 0.0 | 0.00 | 0.00 | 0.00 | 1017.5 | |
| 20260904113019 | 0 | 142 | 0.0 | 0.0 | 0.00 | 0.00 | 0.00 | 1017.5 | |
| 20260904111504 | 0 | 142 | 0.0 | 0.0 | 0.00 | 0.00 | 0.00 | 1017.5 | |
| 20260904110104 | 0 | 142 | 0.0 | 0.0 | 0.00 | 0.00 | 0.00 | 1017.3 | |
| 20260904104556 | 0 | 142 | 0.0 | 0.0 | 0.00 | 0.00 | 0.00 | 1017.2 | |
| 20260904103050 | 0 | 142 | 0.0 | 0.0 | 0.00 | 0.00 | 0.00 | 1017.0 | |
| 20260904101554 | 0 | 142 | 0.0 | 0.0 | 0.00 | 0.00 | 0.00 | 1016.9 | |
| 20260904100044 | 0 | 142 | 0.0 | 0.0 | 0.00 | 0.00 | 0.00 | 1016.9 | |
| 20260904094542 | 0 | 142 | 0.0 | 0.0 | 0.00 | 0.00 | 0.00 | 1016.7 | |
| 20260904093039 | 0 | 142 | 0.0 | 0.0 | 0.00 | 0.00 | 0.00 | 1016.6 | |
| 20260904091534 | 0 | 142 | 0.0 | 0.0 | 0.00 | 0.00 | 0.00 | 1016.2 | |
| 20260904090025 | 0 | 142 | 0.0 | 0.0 | 0.00 | 0.00 | 0.00 | 1016.2 | |
| 20260904084523 | 0 | 142 | 0.0 | 0.0 | 0.00 | 0.00 | 0.00 | 1016.2 | |
| 20260904083022 | 0 | 142 | 0.0 | 0.0 | 0.00 | 0.00 | 0.00 | 1016.0 | |
| 20260904081518 | 0 | 142 | 0.0 | 0.0 | 0.00 | 0.00 | 0.00 | 1015.8 | |
| 20260904080012 | 0 | 142 | 0.0 | 0.0 | 0.00 | 0.00 | 0.00 | 1015.7 | |
| 20260904074507 | 0 | 142 | 0.0 | 0.0 | 0.00 | 0.00 | 0.00 | 1015.8 | |
| 20260904073003 | 0 | 142 | 0.0 | 0.0 | 0.00 | 0.00 | 0.00 | 1015.8 | |
| 20260904071559 | 0 | 142 | 0.0 | 0.0 | 0.00 | 0.00 | 0.00 | 1015.9 | |
| 20260904070055 | 0 | 142 | 0.0 | 0.0 | 0.00 | 0.00 | 0.00 | 1016.0 | |
| 20260904064601 | 0 | 142 | 0.0 | 0.0 | 0.00 | 0.00 | 0.00 | 1016.1 | |
| 20260904063104 | 0 | 142 | 0.0 | 0.0 | 0.00 | 0.00 | 0.00 | 1016.1 | |
| 20260904061544 | 0 | 142 | 0.0 | 0.0 | 0.00 | 0.00 | 0.00 | 1016.3 | |
| 20260904060059 | 0 | 142 | 0.0 | 0.0 | 0.00 | 0.00 | 0.00 | 1016.5 | |
| 20260904054541 | 0 | 142 | 0.0 | 0.0 | 0.00 | 0.00 | 0.00 | 1016.5 | |
| 20260904053033 | 0 | 142 | 0.0 | 0.0 | 0.00 | 0.00 | 0.00 | 1016.7 | |
| 20260904051525 | 0 | 142 | 0.0 | 0.0 | 0.00 | 0.00 | 0.00 | 1016.8 | |
| 20260904050037 | 0 | 142 | 0.0 | 0.0 | 0.00 | 0.00 | 0.00 | 1016.8 | |
| 20260904044520 | 0 | 142 | 0.0 | 0.0 | 0.00 | 0.00 | 0.00 | 1017.0 | |
| 20260904043014 | 0 | 142 | 0.0 | 0.0 | 0.00 | 0.00 | 0.00 | 1017.0 | |
| 20260904041515 | 0 | 142 | 0.0 | 0.0 | 0.00 | 0.00 | 0.00 | 1017.1 | |
| 20260904040003 | 0 | 142 | 0.0 | 0.0 | 0.00 | 0.00 | 0.00 | 1017.0 | |
| 20260904034559 | 0 | 142 | 0.0 | 0.0 | 0.00 | 0.00 | 0.00 | 1017.1 | |
| 20260904033054 | 0 | 142 | 0.0 | 0.0 | 0.00 | 0.00 | 0.00 | 1017.2 | |
| 20260904031551 | 0 | 142 | 0.0 | 0.0 | 0.00 | 0.00 | 0.00 | 1017.1 | |
| 20260904030046 | 0 | 142 | 0.0 | 0.0 | 0.00 | 0.00 | 0.00 | 1017.2 | |
| 20260904024542 | 0 | 142 | 0.0 | 0.0 | 0.00 | 0.00 | 0.00 | 1017.2 | |
| 20260904023040 | 0 | 142 | 0.0 | 0.0 | 0.00 | 0.00 | 0.00 | 1017.1 | |
| 20260904021546 | 0 | 142 | 0.0 | 0.0 | 0.00 | 0.00 | 0.00 | 1017.1 | |
| 20260904020028 | 0 | 142 | 0.0 | 0.0 | 0.00 | 0.00 | 0.00 | 1016.9 | |
| 20260904014523 | 0 | 142 | 0.0 | 0.0 | 0.00 | 0.00 | 0.00 | 1016.7 | |
| 20260904013019 | 0 | 142 | 0.0 | 0.0 | 0.00 | 0.00 | 0.00 | 1016.7 | |
| 20260904011514 | 0 | 142 | 0.0 | 0.0 | 0.00 | 0.00 | 0.00 | 1016.4 | |
| 20260904010010 | 0 | 142 | 0.0 | 0.0 | 0.00 | 0.00 | 0.00 | 1016.2 | |
| 20260904004505 | 0 | 142 | 0.0 | 0.0 | 0.00 | 0.00 | 0.00 | 1016.0 | |
| 20260904003001 | 0 | 142 | 0.0 | 0.0 | 0.00 | 0.00 | 0.00 | 1015.5 | |
| 20260904001608 | 0 | 142 | 0.0 | 0.0 | 0.00 | 0.00 | 0.00 | 1015.3 |